Temperature
19 18 18 18 18 18 18 18 18 18 18 18 18 18 18 18 18 18 18 18 18 18 18 18 18 18 18 18 18 18 18 18 18 18 18 18 18 18 18 18 17 17 18
19 18 18 18 18 18 18 18 18 18 18 18 18 18 18 18 18 18 18 18 18 18 18 18 18 18 18 18 18 18 18 18 18 18 18 18 18 18 18 17 17 17 17
18 18 18 18 18 18 18 18 18 18 18 18 18 18 18 18 18 18 18 18 18 18 18 18 18 18 18 18 18 18 18 18 18 18 18 17 17 18 17 17 17 18 17
18 18 18 18 18 18 18 18 18 18 18 18 18 18 18 18 18 18 18 18 18 18 18 18 18 18 18 18 18 18 18 18 18 18 18 17 17 17 18 17 17 17 17
18 18 18 18 18 18 18 18 18 18 18 18 18 18 18 18 18 18 18 18 18 18 18 18 18 18 18 18 18 18 18 18 18 17 17 17 17 17 18 17 17 17 17
18 18 18 18 18 18 18 18 18 18 18 18 18 18 18 18 18 18 18 18 18 18 18 18 18 18 18 18 18 18 18 18 18 18 17 17 17 18 17 17 17 17 17
19 18 18 18 18 18 18 18 18 18 18 18 18 18 18 18 18 18 18 18 18 18 18 18 18 18 18 18 18 18 18 18 18 18 17 17 17 18 17 17 17 17 17
19 19 18 19 18 18 18 18 18 18 18 18 18 18 18 18 18 18 18 18 18 18 18 18 18 18 18 18 18 18 18 17 18 18 17 17 17 17 17 17 17 17 17
19 19 18 18 18 18 18 18 18 18 18 18 18 18 18 18 18 18 18 18 18 18 18 18 18 18 18 18 18 18 18 18 18 18 17 17 18 18 17 17 17 17 17
19 19 18 18 18 18 18 18 18 18 18 18 18 18 18 18 18 18 18 18 18 18 18 18 18 18 18 18 18 18 18 18 18 18 18 17 18 18 17 17 17 17 17
19 19 19 19 18 18 18 18 18 18 18 18 18 18 18 18 18 17 18 18 18 18 18 18 18 18 18 18 18 18 18 18 18 18 17 18 18 18 17 17 17 17 17
19 19 19 19 18 18 18 18 18 18 17 18 17 17 18 17 18 18 18 18 18 18 18 18 18 18 18 18 18 18 18 18 18 18 18 18 18 18 17 17 17 17 17
19 19 19 19 18 18 18 18 18 18 17 18 17 18 18 18 18 18 18 18 18 18 18 18 18 18 18 18 18 18 18 18 19 18 18 18 18 17 17 17 17 17 17
19 19 19 19 18 18 18 18 18 18 18 18 17 18 18 18 18 18 18 18 18 18 18 18 18 18 18 18 18 18 18 18 18 18 18 18 18 17 17 17 17 17 17
19 19 19 18 18 18 18 18 18 18 18 18 18 18 18 18 18 18 18 18 18 18 18 18 18 18 18 18 18 18 18 18 18 18 18 18 18 17 17 17 17 17 17
19 19 19 19 18 18 18 18 18 18 18 18 18 18 18 18 18 18 18 18 18 18 18 18 18 18 18 18 18 18 18 18 18 17 17 18 18 17 17 17 17 17 16
20 19 19 19 19 18 18 18 18 18 18 18 18 18 18 18 18 18 18 18 18 18 18 18 18 18 18 18 18 18 18 17 17 17 17 17 17 17 17 17 17 16 16
20 19 19 19 19 19 18 18 18 18 18 18 18 18 18 18 18 18 18 18 18 18 18 18 18 18 18 18 18 18 18 17 17 17 17 17 17 17 17 17 17 16 16
20 20 19 19 19 19 19 18 18 18 18 18 18 18 18 18 18 18 18 18 18 18 18 18 18 18 18 18 18 18 18 18 17 17 17 17 17 17 17 17 17 16 16
20 20 20 19 19 19 19 19 18 18 18 18 18 18 18 18 18 18 18 18 18 18 18 18 18 18 18 18 18 18 18 17 17 17 17 17 17 16 16 16 16 16 16
20 20 20 20 20 19 19 19 19 19 18 18 18 18 18 18 18 18 18 18 18 18 18 18 18 18 18 17 18 17 18 17 17 17 17 17 17 16 16 16 16 16 16
21 21 20 20 20 20 19 19 19 19 18 18 18 18 18 18 18 18 18 18 18 18 18 17 17 18 18 17 17 18 18 18 17 17 17 17 16 16 16 16 16 16 16
21 21 21 20 20 20 19 19 19 19 19 19 18 18 18 18 18 18 18 18 18 18 18 18 17 17 18 17 17 18 18 18 18 17 16 16 16 16 16 16 16 15 15
22 21 21 21 20 20 20 19 19 19 19 19 19 19 18 18 18 18 18 18 18 18 18 18 17 17 17 17 17 17 17 17 17 17 17 16 16 16 16 15 15 15 15
22 22 21 21 21 21 20 20 19 19 19 19 19 19 18 18 18 18 18 18 18 18 18 18 17 17 17 17 17 17 17 17 17 17 17 16 16 16 15 15 15 15 15
23 22 21 21 21 21 21 20 20 19 19 19 19 19 19 19 18 18 18 18 18 18 17 17 17 17 17 17 17 17 17 17 17 17 17 16 16 15 15 15 15 15 15
Wind_Speed
3 5 8 7 8 9 9 10 10 11 12 13 14 15 16 16 17 18 18 19 19 20 20 21 21 22 22 21 21 20 20 20 20 20 20 19 18 18 17 16 15 16 17
4 5 7 7 8 9 9 10 10 11 12 13 14 14 16 16 17 17 18 19 19 20 21 21 21 21 21 20 20 20 20 19 19 20 19 18 17 16 15 12 11 16 16
4 6 7 7 8 9 9 10 11 11 12 13 14 14 15 16 17 17 18 19 19 20 20 20 20 20 20 20 19 19 19 18 18 17 16 16 16 15 14 14 17 17 15
5 6 9 8 8 9 9 10 11 12 12 13 14 14 14 15 16 17 18 18 19 19 20 19 19 19 19 19 19 18 18 17 15 12 12 14 15 15 15 15 15 15 15
6 7 10 8 9 10 10 11 11 12 12 13 13 14 14 15 15 16 17 17 18 18 19 19 18 19 18 18 18 17 16 15 11 8 12 12 14 15 15 15 14 14 14
7 8 11 8 9 10 10 11 11 11 12 12 13 13 14 14 15 16 16 16 17 18 18 18 18 17 17 17 17 16 14 12 11 11 11 11 14 14 14 14 14 13 12
7 8 10 9 9 9 10 11 11 11 12 12 13 13 14 15 15 16 16 16 16 17 17 17 16 16 16 16 15 14 11 6 7 10 9 10 13 14 13 13 13 12 11
7 8 9 9 9 9 9 10 11 12 12 12 13 14 15 15 15 15 15 15 15 15 15 16 15 15 14 14 13 12 9 5 9 9 9 11 14 12 12 12 12 11 10
7 7 6 8 9 9 9 10 11 11 12 12 13 14 14 14 14 14 14 14 14 15 14 14 14 13 13 12 12 10 7 2 5 8 8 9 13 11 10 10 10 10 10
6 6 6 6 7 7 9 10 10 10 11 12 12 12 13 14 14 13 14 14 13 13 13 13 12 12 11 11 10 9 7 5 5 7 7 11 13 10 10 9 9 9 9
5 5 5 6 6 6 7 9 8 9 9 9 10 10 8 9 11 11 14 12 12 12 12 11 11 10 10 11 10 9 7 4 5 5 6 13 11 9 9 8 8 8 8
5 5 5 5 5 5 5 6 5 6 7 6 7 7 7 8 8 10 13 11 10 10 10 10 9 10 8 8 11 10 4 4 4 5 8 13 10 9 8 8 8 7 7
5 5 5 5 4 4 4 4 4 4 5 6 7 6 7 6 7 7 7 9 9 8 7 9 8 4 4 4 3 3 2 2 2 4 9 12 9 8 8 8 8 8 7
5 5 4 5 4 3 3 4 3 3 3 4 5 4 5 4 4 4 3 5 4 5 4 3 3 4 3 3 2 2 2 1 1 3 8 10 9 8 7 8 8 8 8
5 5 5 4 4 3 2 1 3 3 3 4 4 4 4 3 4 3 3 2 3 3 4 3 2 3 2 2 2 1 1 1 1 1 5 9 8 8 8 8 9 9 9
5 5 5 5 5 4 3 2 2 2 2 2 3 3 2 2 3 2 3 2 2 2 2 2 2 2 2 1 1 1 1 1 1 1 3 7 8 7 7 7 8 8 9
6 5 5 5 5 4 3 3 2 2 2 1 2 3 2 2 2 1 1 2 1 2 2 2 2 2 2 2 2 2 2 2 1 2 2 2 6 8 7 6 7 8 9
6 6 5 4 5 5 3 2 2 2 2 1 1 2 2 1 1 1 1 1 1 1 2 2 2 2 2 2 2 1 1 2 3 3 3 3 3 3 5 6 6 7 7
7 6 6 5 5 5 4 3 2 2 1 1 1 1 2 1 1 2 1 0 1 1 1 2 1 1 2 1 2 2 1 1 2 3 2 3 3 3 3 5 6 6 6
8 7 7 7 6 5 5 4 3 2 2 2 1 1 1 1 1 1 1 1 1 1 1 1 1 1 1 1 1 0 1 0 1 1 2 2 1 2 2 3 4 6 6
9 9 8 8 7 6 5 4 4 3 3 2 2 1 2 1 1 2 1 1 2 1 1 2 1 2 2 1 2 1 1 1 1 1 1 0 1 1 1 1 2 2 4
11 10 10 10 9 8 5 4 3 2 2 2 1 2 2 2 2 2 1 2 1 1 1 1 1 2 2 2 2 2 2 3 2 1 2 1 1 1 1 0 0 2 2
12 12 10 10 9 8 7 5 4 4 3 3 3 3 2 2 1 0 1 1 1 2 1 2 2 3 3 3 3 3 3 1 1 2 2 1 1 0 0 1 1 1 1
12 12 11 10 10 9 8 7 6 5 4 3 3 3 3 3 2 2 1 1 2 2 1 3 2 3 4 3 3 4 4 3 2 1 2 2 2 1 0 1 0 0 1
13 12 11 11 10 10 9 8 8 6 4 4 3 3 3 3 3 2 2 2 2 2 2 2 2 3 4 4 4 3 3 3 4 3 2 2 1 1 1 1 0 1 1
13 12 12 12 11 10 10 9 9 7 6 4 4 4 4 3 3 3 3 3 3 2 2 2 2 3 3 4 4 4 3 3 3 3 3 2 1 1 1 0 0 0 1
Wind_Direction
52 45 49 32 46 48 49 54 60 68 74 79 84 89 92 95 97 98 100 102 103 107 109 110 111 111 110 111 111 112 113 113 113 114 115 114 116 117 120 126 129 115 115
67 62 63 44 50 52 54 58 62 69 79 86 91 92 93 96 99 100 102 102 104 106 108 109 111 111 110 111 112 113 113 114 115 116 118 116 114 115 118 116 101 112 120
79 74 80 57 54 56 59 63 66 70 80 88 94 95 94 97 99 103 103 104 105 107 108 109 109 111 111 111 112 112 113 114 116 123 131 122 115 113 112 106 107 117 119
78 78 76 64 60 61 62 66 71 73 81 90 94 97 96 97 100 103 104 105 106 108 109 109 109 111 111 111 111 112 112 114 121 141 129 117 118 114 113 113 117 120 120
83 83 82 67 64 65 65 66 72 74 81 91 95 98 98 99 101 103 103 104 106 109 109 109 110 112 112 112 111 111 113 118 135 140 110 113 113 118 120 120 120 122 123
100 91 86 73 67 68 69 69 71 74 82 92 98 99 100 101 102 104 102 104 106 108 108 109 110 112 113 114 114 115 119 135 154 117 115 119 117 123 125 125 125 126 126
96 90 89 80 70 68 67 69 72 75 84 89 97 100 102 101 101 104 102 104 106 107 107 108 110 112 114 116 118 120 122 144 124 111 118 115 114 126 130 130 130 129 129
96 93 94 97 80 72 69 71 74 78 83 87 98 103 104 102 101 103 106 106 108 110 110 110 112 113 114 116 121 126 133 167 123 115 116 111 115 129 133 135 135 135 136
99 95 97 103 102 96 81 83 81 80 82 88 97 102 104 104 104 107 108 108 111 112 112 113 113 114 117 119 121 126 132 191 126 119 119 117 127 136 137 141 143 142 144
103 98 100 95 93 101 98 92 87 84 85 90 95 104 113 117 117 120 117 111 112 114 115 115 115 118 120 124 128 130 149 194 127 125 121 121 135 145 146 146 149 151 153
108 98 94 95 92 88 91 98 104 101 94 106 103 116 128 117 115 122 105 112 114 116 117 118 121 128 136 139 141 152 181 157 126 116 110 120 144 154 156 157 158 159 161
123 116 103 91 89 88 88 98 96 99 94 88 88 102 106 103 105 108 118 120 121 123 129 128 139 159 177 145 152 180 177 146 136 128 120 133 152 164 167 168 170 172 176
133 124 114 103 97 93 92 100 98 95 99 99 94 101 100 108 114 117 126 133 133 144 137 143 165 147 130 119 142 155 136 137 135 127 129 147 162 173 177 180 184 187 189
135 128 117 112 104 80 73 97 113 111 106 95 99 95 106 105 105 107 117 116 131 129 131 145 134 120 116 133 142 133 148 161 129 110 127 151 169 180 186 192 197 200 202
146 138 128 127 124 121 104 86 102 98 100 99 96 98 98 113 110 113 109 113 124 125 143 146 131 126 152 167 179 166 185 140 163 140 137 153 171 187 197 203 209 210 212
161 151 146 152 143 139 134 122 109 122 115 102 110 107 112 110 106 118 131 123 131 137 111 138 145 158 170 162 174 170 217 208 147 174 160 155 168 186 205 213 213 218 220
173 168 165 165 157 158 155 157 147 143 139 129 125 127 136 133 125 161 129 156 127 129 141 164 167 175 176 177 172 185 202 214 183 189 196 172 174 182 194 209 217 223 226
181 175 179 176 160 167 172 180 159 144 133 155 157 141 141 139 184 220 183 156 140 172 176 178 198 185 176 188 177 210 206 188 192 199 200 190 200 191 183 201 219 224 231
186 180 179 185 175 176 171 172 172 154 155 179 172 160 143 186 204 227 225 87 213 213 220 236 160 213 197 196 195 196 216 205 204 206 203 207 197 199 193 177 201 206 217
183 182 185 188 187 185 180 178 182 175 178 176 187 149 165 187 193 245 203 163 228 217 232 236 242 220 226 221 247 119 283 224 201 182 217 198 186 204 211 200 196 189 199
185 185 189 193 187 192 192 194 189 186 189 177 187 165 186 207 188 229 269 171 240 234 262 258 236 188 203 185 209 213 190 171 141 155 180 190 171 188 182 210 234 223 188
191 190 190 194 193 194 188 195 194 202 193 180 182 155 200 204 218 208 210 233 222 236 224 243 225 258 231 213 239 239 223 186 173 169 151 174 179 148 127 157 294 259 252
195 194 193 193 193 196 192 192 185 184 200 186 185 181 190 199 194 235 200 270 277 263 228 232 232 240 253 240 245 263 267 260 187 162 158 158 182 218 267 53 41 342 274
196 193 192 191 193 193 195 201 198 201 202 190 193 170 177 193 200 198 213 234 267 276 251 245 219 247 252 254 240 248 267 290 258 200 184 166 166 187 268 303 18 53 291
194 191 189 190 192 193 196 198 204 208 203 190 185 173 198 189 200 203 206 217 233 259 267 273 260 257 253 258 261 252 246 243 247 244 228 205 193 185 188 241 325 24 32
192 191 188 187 192 193 196 199 205 207 207 201 199 191 198 189 192 194 203 211 229 252 247 255 257 246 266 271 271 264 255 249 243 243 242 220 203 174 155 112 281 65 49
Height
1519 1517 1514 1513 1512 1510 1509 1507 1506 1504 1502 1500 1498 1499 1499 1500 1502 1503 1505 1506 1508 1510 1512 1514 1516 1519 1521 1524 1526 1528 1531 1533 1535 1537 1539 1540 1542 1544 1546 1547 1549 1550 1551
1520 1518 1515 1514 1513 1512 1511 1510 1508 1507 1506 1504 1504 1504 1504 1505 1506 1507 1509 1510 1512 1514 1516 1518 1520 1522 1525 1527 1529 1532 1534 1536 1538 1539 1541 1543 1545 1547 1548 1550 1551 1552 1553
1521 1520 1518 1516 1515 1514 1513 1512 1511 1509 1508 1508 1508 1508 1509 1509 1510 1511 1513 1514 1516 1518 1520 1522 1524 1526 1528 1530 1533 1535 1537 1539 1540 1542 1545 1547 1548 1549 1550 1552 1553 1554 1555
1522 1522 1520 1518 1517 1516 1515 1514 1513 1512 1511 1511 1511 1512 1512 1513 1514 1515 1517 1518 1520 1522 1524 1526 1527 1530 1532 1533 1535 1537 1539 1541 1543 1546 1550 1551 1551 1551 1552 1554 1555 1556 1557
1524 1523 1521 1520 1519 1518 1517 1516 1515 1515 1514 1514 1514 1515 1516 1517 1518 1519 1521 1522 1524 1525 1527 1529 1531 1533 1535 1537 1538 1540 1542 1544 1546 1549 1552 1553 1553 1553 1554 1555 1556 1558 1559
1525 1525 1523 1521 1521 1520 1519 1518 1518 1517 1517 1517 1517 1517 1518 1520 1521 1523 1524 1526 1527 1529 1531 1532 1534 1536 1538 1540 1541 1543 1545 1547 1550 1553 1553 1555 1555 1555 1556 1557 1558 1559 1560
1528 1527 1525 1523 1523 1522 1521 1521 1520 1519 1519 1519 1520 1520 1521 1523 1524 1526 1527 1528 1530 1532 1534 1536 1537 1539 1541 1543 1544 1546 1548 1549 1554 1555 1555 1557 1556 1556 1558 1559 1560 1561 1562
1529 1529 1527 1526 1525 1524 1523 1522 1522 1522 1522 1522 1522 1523 1524 1526 1527 1529 1530 1532 1533 1535 1537 1539 1540 1542 1544 1546 1547 1548 1550 1552 1556 1557 1558 1558 1557 1558 1559 1560 1561 1562 1563
1531 1531 1530 1530 1528 1527 1525 1524 1525 1524 1524 1525 1525 1526 1527 1529 1531 1532 1534 1535 1537 1538 1540 1542 1543 1545 1547 1548 1549 1551 1552 1554 1558 1559 1559 1559 1558 1559 1560 1561 1562 1563 1564
1533 1532 1532 1532 1532 1531 1529 1528 1528 1527 1527 1528 1528 1529 1531 1532 1534 1535 1537 1538 1539 1541 1542 1544 1546 1547 1549 1550 1552 1553 1554 1556 1559 1560 1561 1560 1559 1560 1561 1562 1563 1563 1564
1534 1534 1534 1534 1534 1534 1533 1531 1531 1530 1530 1531 1532 1532 1534 1537 1538 1540 1540 1541 1542 1543 1545 1546 1548 1549 1551 1552 1553 1554 1556 1559 1560 1561 1561 1560 1560 1561 1561 1562 1563 1564 1564
1536 1536 1536 1536 1536 1536 1536 1534 1534 1535 1534 1535 1535 1536 1537 1538 1540 1542 1542 1543 1544 1546 1547 1548 1550 1551 1553 1555 1555 1556 1559 1560 1561 1561 1561 1560 1560 1561 1562 1562 1563 1564 1564
1537 1538 1538 1537 1537 1538 1537 1537 1537 1537 1536 1537 1537 1538 1539 1541 1543 1544 1545 1546 1547 1548 1550 1551 1552 1554 1556 1556 1557 1559 1560 1561 1561 1562 1561 1560 1561 1561 1562 1562 1563 1563 1564
1539 1539 1539 1539 1539 1538 1539 1539 1539 1539 1539 1540 1539 1540 1542 1543 1544 1546 1547 1548 1549 1550 1551 1553 1553 1555 1555 1556 1557 1559 1559 1560 1561 1562 1560 1560 1561 1561 1561 1562 1562 1563 1563
1539 1540 1540 1540 1539 1539 1539 1540 1541 1541 1542 1541 1541 1542 1543 1544 1545 1547 1547 1548 1550 1551 1552 1553 1554 1555 1556 1557 1557 1558 1559 1559 1560 1561 1560 1559 1560 1560 1560 1561 1561 1562 1562
1540 1540 1541 1541 1541 1541 1541 1541 1542 1543 1542 1543 1544 1544 1544 1546 1546 1548 1549 1549 1551 1552 1553 1553 1554 1555 1555 1556 1557 1557 1558 1559 1558 1559 1559 1558 1558 1559 1559 1559 1560 1560 1560
1540 1541 1541 1542 1542 1542 1542 1543 1544 1544 1544 1545 1545 1545 1545 1547 1547 1548 1550 1550 1551 1552 1552 1553 1553 1554 1555 1555 1556 1556 1557 1557 1557 1557 1558 1558 1557 1557 1557 1558 1558 1558 1558
1540 1540 1541 1543 1543 1543 1543 1544 1545 1546 1546 1545 1546 1546 1546 1547 1548 1549 1550 1551 1551 1552 1553 1552 1553 1554 1554 1555 1555 1555 1555 1555 1555 1555 1556 1556 1556 1556 1555 1555 1556 1556 1556
1539 1540 1541 1542 1543 1543 1544 1544 1545 1546 1546 1547 1547 1547 1548 1548 1548 1549 1550 1550 1551 1552 1552 1552 1553 1553 1553 1554 1554 1554 1554 1554 1554 1554 1554 1554 1554 1554 1554 1553 1553 1553 1553
1538 1539 1540 1541 1542 1543 1544 1545 1546 1546 1547 1548 1548 1548 1548 1548 1548 1549 1550 1549 1550 1551 1551 1551 1551 1551 1552 1552 1553 1552 1552 1552 1552 1552 1552 1552 1551 1552 1552 1551 1551 1551 1551
1537 1538 1539 1540 1541 1542 1544 1545 1546 1547 1547 1548 1548 1548 1548 1548 1548 1548 1549 1549 1549 1550 1550 1550 1550 1550 1551 1550 1551 1551 1551 1550 1550 1550 1550 1550 1550 1549 1549 1549 1549 1549 1549
1535 1536 1538 1539 1540 1542 1543 1544 1545 1546 1547 1548 1548 1548 1548 1548 1548 1549 1548 1549 1549 1548 1548 1549 1549 1549 1550 1549 1550 1549 1549 1550 1548 1548 1548 1548 1548 1548 1547 1547 1547 1547 1547
1532 1534 1536 1537 1539 1540 1542 1543 1544 1545 1546 1547 1547 1547 1547 1548 1548 1548 1548 1548 1548 1548 1548 1547 1547 1548 1548 1548 1548 1548 1548 1547 1547 1547 1546 1546 1546 1546 1546 1546 1545 1545 1545
1530 1532 1534 1536 1537 1539 1540 1542 1543 1544 1545 1546 1546 1547 1547 1547 1547 1547 1547 1547 1547 1547 1547 1547 1547 1546 1546 1547 1546 1546 1546 1546 1546 1546 1546 1545 1545 1544 1544 1544 1544 1543 1543
1528 1530 1532 1533 1535 1537 1538 1540 1541 1543 1544 1545 1545 1545 1546 1546 1546 1546 1546 1546 1546 1546 1545 1545 1544 1544 1545 1545 1545 1544 1544 1543 1544 1544 1543 1544 1543 1543 1543 1542 1542 1542 1542
1525 1528 1530 1531 1533 1534 1536 1538 1539 1541 1542 1543 1544 1545 1545 1546 1546 1545 1545 1545 1545 1545 1544 1543 1543 1542 1542 1542 1542 1542 1542 1542 1542 1542 1541 1541 1541 1541 1541 1541 1541 1540 1540